Weather Roundup
Issued by NWS Chicago, IL

Home | Current Version | Previous Version | Graphics & Text | Print | Product List | Glossary On
Versions: 1 2 3 4 5 6 7 8 9 10 11 12 13 14 15 16 17 18 19 20 21 22 23 24 25 26 27 28 29 30 31 32 33 34 35 36 37 38 39 40 41 42 43 44 45 46 47 48 49 50
169
NZUS59 KLOT 270808
HRRLOT

CHICAGO AREA WEATHER ROUNDUP
NATIONAL WEATHER SERVICE CHICAGO/ROMEOVILLE IL
300 AM CDT MON MAR 27 2017

NOTE: "FAIR" INDICATES FEW OR NO CLOUDS BELOW 12,000 FEET WITH NO
SIGNIFICANT WEATHER AND/OR OBSTRUCTIONS TO VISIBILITY.

* THESE STATIONS ARE NOT UNDER NWS QUALITY CONTROL. THEY ALSO MAY NOT
  REPORT WEATHER SUCH AS PRECIPITATION OR FOG.

ILZ005-006-012>014-019>023-270900-
NORTHEAST ILLINOIS

CITY           SKY/WX    TMP DP  RH WIND       PRES   REMARKS
OHARE          CLOUDY    52  49  89 NW8       29.88F FOG
MIDWAY         CLOUDY    51  50  96 SW9       29.90R FOG
AURORA         CLOUDY    50  48  93 W10       29.90F FOG
LANSING*       CLOUDY    50  50 100 W9        29.91S FOG
JOLIET*        CLOUDY    51  50  97 W6        29.91S FOG
WAUKEGAN       CLOUDY    44  44 100 CALM      29.89R FOG
DUPAGE AIRPORT CLOUDY    50  50 100 W7        29.89R FOG
WHEELING       CLOUDY    50  50 100 NW3       29.89F
KANKAKEE*      CLOUDY    49  49  97 W8        29.93S FOG
MORRIS*        CLOUDY    49  48  95 CALM      29.91S FOG
LEWIS AIRPORT* CLOUDY    49  49 100 W7        29.91S FOG
$$

WIZ051-052-058>065-066-070>072-270900-
SOUTHEAST WISCONSIN

CITY           SKY/WX    TMP DP  RH WIND       PRES   REMARKS
MILWAUKEE      CLOUDY    44  41  89 W3        29.88R
KENOSHA*       CLOUDY    44  43  96 W7        29.90R
RACINE*        CLOUDY    44  42  93 W3        29.90R
WAUKESHA       CLOUDY    37  37 100 W7        29.90R
WEST BEND      CLOUDY    37  37 100 W5        29.88R
$$

INZ001>003-010>013-019-020-270900-
NORTHWEST INDIANA

CITY           SKY/WX    TMP DP  RH WIND       PRES   REMARKS
GARY*          CLOUDY    52  50  94 SW6       29.91S FOG
MICHIGAN CITY* NOT AVBL
RENSSELAER*    NOT AVBL
VALPARAISO     CLOUDY    50  50 100 SW12      29.92R FOG
$$

LMZ740>746-270900-
SOUTHERN LAKE MICHIGAN

STATION/POSITION TIME  SKY/WX   TEMP WIND        PRES    VSBY
                                AIR  DIR/SP/G
                 (UTC)          (F)  (DEG/KT/KT) (MB)    (MI)
HARRISON CRIB    0740            51  250/ 13/ 15   N/A
BURNHAM HARBOR   0800            50  260/  7/ 11   N/A
CALUMET HARBOR   0748            51  230/  7/ 11 1012.1R
BURNS HARBOR     0740            50  240/ 11/ 14 1013.2R
MICHIGAN CITY    0740            49  200/ 10/ 12   N/A
$$

ABBREVIATIONS USED IN REMARKS
   TC - TEMPERATURE IN CELSIUS
  WCI - WIND CHILL INDEX
   HX - HEAT INDEX
  VSB - VISIBILITY
$$




USA.gov is the U.S. government's official web portal to all federal, state and local government web resources and services.